FW1737 Weather Reports


Display with metric or nautical units.
time (UTC)temp
F
wind
direction
speed
MPH
gust
MPH
rain 1hr
in
rain 24hr
in
rain mn
in
humidity
%
barometer
mb
20260903014536 52 267 0.0 0.0 0.00 0.00 0.00 98 1023.4
20260903013035 52 267 0.0 0.0 0.00 0.00 0.00 98 1023.5
20260903011537 53 267 0.0 2.0 0.00 0.00 0.00 98 1023.5
20260903010035 53 267 0.0 0.0 0.00 0.00 0.00 97 1023.5
20260903004534 54 267 0.0 2.0 0.00 0.00 0.00 97 1023.6
20260903003034 54 267 0.0 3.0 0.00 0.00 0.00 97 1023.5
20260903001534 55 267 0.0 2.0 0.00 0.00 0.00 97 1023.4
20260903000035 56 267 0.0 0.0 0.00 0.00 0.00 96 1023.4
20260902234532 56 267 0.0 0.0 0.00 0.00 0.00 96 1023.3
20260902233032 57 267 0.0 1.0 0.00 0.00 0.00 95 1023.1
20260902231534 58 267 1.0 3.0 0.00 0.00 0.00 94 1023.1
20260902230031 59 267 0.0 3.0 0.00 0.00 0.00 93 1023.2
20260902224531 60 275 0.0 3.0 0.00 0.00 0.00 92 1023.0
20260902223031 62 275 0.0 0.0 0.00 0.00 0.00 91 1023.1
20260902221536 63 275 0.0 0.0 0.00 0.00 0.00 90 1023.0
20260902220042 64 275 0.0 2.0 0.00 0.00 0.00 90 1023.1
20260902214529 64 275 0.0 0.0 0.00 0.00 0.00 91 1023.3
20260902213028 64 275 0.0 2.0 0.00 0.00 0.00 90 1023.1
20260902211527 65 275 0.0 1.0 0.00 0.00 0.00 90 1023.2
20260902210045 65 275 0.0 2.0 0.00 0.00 0.00 87 1023.1
20260902204532 65 275 0.0 0.0 0.00 0.00 0.00 85 1023.0
20260902203024 66 275 3.0 4.0 0.00 0.00 0.00 81 1023.0
20260902201525 68 275 0.0 0.0 0.00 0.00 0.00 76 1023.0
20260902200023 69 275 0.0 5.0 0.00 0.00 0.00 69 1022.9
20260902194521 70 192 1.0 6.0 0.00 0.00 0.00 70 1023.0
20260902193020 70 90 3.0 6.0 0.00 0.00 0.00 70 1022.9
20260902191518 68 149 3.0 7.0 0.00 0.00 0.00 73 1023.0
20260902190017 67 165 2.0 5.0 0.00 0.00 0.00 77 1022.8
20260902184517 67 168 4.0 6.0 0.00 0.00 0.00 75 1022.8
20260902183017 67 163 3.0 7.0 0.00 0.00 0.00 74 1022.7
20260902181516 67 163 3.0 7.0 0.00 0.00 0.00 74 1022.8
20260902180015 67 181 6.0 8.0 0.00 0.00 0.00 72 1022.9
20260902174514 69 128 5.0 9.0 0.00 0.00 0.00 68 1022.7
20260902173014 69 92 1.0 2.0 0.00 0.00 0.00 67 1022.7
20260902171513 69 82 3.0 8.0 0.00 0.00 0.00 68 1022.8
20260902170011 68 148 1.0 5.0 0.00 0.00 0.00 69 1022.8
20260902164511 68 60 2.0 5.0 0.00 0.00 0.00 68 1022.8
20260902163010 67 313 2.0 5.0 0.00 0.00 0.00 69 1023.0
20260902161512 67 142 2.0 6.0 0.00 0.00 0.00 71 1023.1
20260902160010 68 18 3.0 7.0 0.00 0.00 0.00 68 1023.2
20260902154508 69 19 1.0 8.0 0.00 0.00 0.00 68 1023.2
20260902153008 68 191 1.0 7.0 0.00 0.00 0.00 72 1023.3
20260902151511 68 163 2.0 6.0 0.00 0.00 0.00 70 1023.3
20260902150007 67 69 2.0 7.0 0.00 0.00 0.00 71 1023.3
20260902144613 67 25 3.0 5.0 0.00 0.00 0.00 73 1023.5
20260902143058 67 132 0.0 3.0 0.00 0.00 0.00 75 1023.5
20260902141558 67 108 1.0 7.0 0.00 0.00 0.00 74 1023.6
20260902140056 65 108 4.0 8.0 0.00 0.00 0.00 76 1023.6
20260902134554 64 169 1.0 3.0 0.00 0.00 0.00 78 1023.6
20260902133053 64 102 0.0 4.0 0.00 0.00 0.00 79 1023.7
20260902131551 64 151 1.0 5.0 0.00 0.00 0.00 81 1023.8
20260902130045 63 155 1.0 4.0 0.00 0.00 0.00 84 1023.8
20260902124543 62 76 0.0 4.0 0.00 0.00 0.00 85 1023.8
20260902123041 61 65 1.0 3.0 0.00 0.00 0.00 87 1024.0
20260902121538 60 79 0.0 3.0 0.00 0.00 0.00 90 1024.0
20260902120033 59 109 0.0 1.0 0.00 0.00 0.00 94 1023.9
20260902114534 57 109 0.0 3.0 0.00 0.00 0.00 96 1023.9
20260902113030 56 214 0.0 1.0 0.00 0.00 0.00 98 1024.0
20260902111529 54 214 0.0 2.0 0.00 0.00 0.00 99 1024.0
20260902110027 53 217 0.0 0.0 0.00 0.00 0.00 100 1023.8
20260902104537 52 217 0.0 0.0 0.00 0.00 0.00 100 1023.7
20260902103026 51 217 0.0 0.0 0.00 0.00 0.00 100 1023.7
20260902101534 49 217 0.0 0.0 0.00 0.00 0.00 100 1023.5
20260902100023 48 217 1.0 4.0 0.00 0.00 0.00 100 1023.4
20260902094520 48 217 0.0 2.0 0.00 0.00 0.00 100 1023.2
20260902093027 48 217 0.0 0.0 0.00 0.00 0.00 100 1023.2
20260902091517 49 217 0.0 0.0 0.00 0.00 0.00 100 1023.1
20260902090014 49 217 0.0 0.0 0.00 0.00 0.00 100 1022.9
20260902084514 50 217 0.0 0.0 0.00 0.00 0.00 100 1023.0
20260902083013 50 217 0.0 0.0 0.00 0.00 0.00 100 1023.0
20260902081512 50 217 0.0 2.0 0.00 0.00 0.00 100 1022.7
20260902080009 50 217 0.0 4.0 0.00 0.00 0.00 100 1022.7
20260902074508 49 216 1.0 3.0 0.00 0.00 0.00 100 1022.5
20260902073006 50 216 0.0 3.0 0.00 0.00 0.00 100 1022.4
20260902071503 50 209 0.0 0.0 0.00 0.00 0.00 99 1022.2
20260902064610 51 209 0.0 0.0 0.00 0.00 0.00 99 1022.0
20260902063102 51 209 0.0 0.0 0.00 0.00 0.00 99 1022.0
20260902061559 52 209 0.0 0.0 0.00 0.00 0.00 99 1021.9
20260902060055 52 209 0.0 0.0 0.00 0.00 0.00 99 1021.9
20260902054551 53 209 0.0 0.0 0.00 0.00 0.00 99 1021.8
20260902053055 54 209 0.0 0.0 0.00 0.00 0.00 98 1021.8
20260902051550 54 209 0.0 4.0 0.00 0.00 0.00 99 1021.8
20260902050046 54 209 0.0 0.0 0.00 0.00 0.00 99 1021.7
20260902044544 55 209 0.0 4.0 0.00 0.00 0.00 99 1021.7
20260902043042 55 209 0.0 0.0 0.00 0.00 0.00 99 1021.6
20260902041541 55 209 0.0 0.0 0.00 0.00 0.00 99 1021.5
20260902040038 56 209 1.0 2.0 0.00 0.00 0.00 98 1021.5
20260902034545 56 209 0.0 2.0 0.00 0.00 0.00 98 1021.4
20260902033051 57 209 1.0 3.0 0.00 0.00 0.00 98 1021.4
20260902031531 57 209 0.0 0.0 0.00 0.00 0.00 98 1021.3
20260902030028 57 209 0.0 0.0 0.00 0.00 0.00 99 1021.1
20260902024528 57 209 0.0 3.0 0.00 0.00 0.00 99 1021.1
20260902023028 57 209 0.0 0.0 0.00 0.00 0.00 99 1021.0
20260902021528 57 209 0.0 0.0 0.00 0.00 0.00 98 1020.9
20260902020031 57 209 0.0 2.0 0.00 0.00 0.00 98 1021.0